AWG99W LROP-LOWW

Flight info

Callsign AWG99W
Flight time 1h 15m
Altitude 38000
Route SOKRU DCT OXDOC DCT IBINU DCT BALUX DCT TORNO DCT NATEX NATEX2W
Aircraft A320/M-SDE3FGHIRWY/LB1

Departure

Time 2026-04-24 19:24
Airport Bucharest Henri Coandă International Airport (LROP)

Arrival

Time 2026-04-24 20:40
Airport Vienna International Airport (LOWW)
Time Latitude Longitude Altitude Speed Heading
2026-04-24 18:54 44.56936 26.10004 316 ft 0 kts 173°
2026-04-24 19:10 44.56945 26.10002 316 ft 3 kts 174°
2026-04-24 19:11 44.56965 26.10000 314 ft 3 kts 180°
2026-04-24 19:11 44.56985 26.10001 315 ft 3 kts 187°
2026-04-24 19:11 44.57005 26.10006 316 ft 3 kts 198°
2026-04-24 19:11 44.57022 26.10017 316 ft 3 kts 224°
2026-04-24 19:12 44.57031 26.10033 316 ft 1 kts 262°
2026-04-24 19:12 44.57031 26.10036 315 ft 0 kts 264°
2026-04-24 19:15 44.57031 26.10031 316 ft 1 kts 264°
2026-04-24 19:16 44.57025 26.09959 316 ft 6 kts 264°
2026-04-24 19:16 44.57020 26.09893 315 ft 8 kts 264°
2026-04-24 19:16 44.57013 26.09807 316 ft 10 kts 263°
2026-04-24 19:17 44.57005 26.09701 314 ft 12 kts 263°
2026-04-24 19:17 44.56995 26.09575 316 ft 14 kts 264°
2026-04-24 19:17 44.56983 26.09428 316 ft 16 kts 264°
2026-04-24 19:17 44.56971 26.09260 315 ft 18 kts 264°
2026-04-24 19:18 44.56956 26.09072 315 ft 21 kts 263°
2026-04-24 19:18 44.56944 26.08907 315 ft 17 kts 264°
2026-04-24 19:18 44.56931 26.08734 314 ft 19 kts 264°
2026-04-24 19:18 44.56934 26.08569 314 ft 14 kts 302°
2026-04-24 19:19 44.57028 26.08534 316 ft 15 kts 354°
2026-04-24 19:19 44.57135 26.08518 317 ft 16 kts 354°
2026-04-24 19:19 44.57250 26.08501 319 ft 18 kts 354°
2026-04-24 19:19 44.57377 26.08483 320 ft 19 kts 354°
2026-04-24 19:20 44.57508 26.08464 321 ft 6 kts 354°
2026-04-24 19:20 44.57526 26.08461 318 ft 0 kts 354°
2026-04-24 19:21 44.57533 26.08460 320 ft 2 kts 353°
2026-04-24 19:21 44.57549 26.08458 321 ft 3 kts 353°
2026-04-24 19:21 44.57570 26.08454 321 ft 3 kts 353°
2026-04-24 19:22 44.57587 26.08452 322 ft 4 kts 355°
2026-04-24 19:22 44.57620 26.08448 323 ft 4 kts 358°
2026-04-24 19:22 44.57654 26.08451 323 ft 5 kts 15°
2026-04-24 19:22 44.57667 26.08502 323 ft 7 kts 86°
2026-04-24 19:23 44.57671 26.08552 323 ft 4 kts 85°
2026-04-24 19:23 44.57673 26.08586 323 ft 3 kts 84°
2026-04-24 19:23 44.57674 26.08601 323 ft 0 kts 84°
2026-04-24 19:23 44.57675 26.08609 323 ft 5 kts 84°
2026-04-24 19:24 44.57710 26.09066 318 ft 93 kts 84°
2026-04-24 19:24 44.57805 26.10316 332 ft 160 kts 83°
2026-04-24 19:24 44.57931 26.12006 692 ft 193 kts 84°
2026-04-24 19:24 44.58081 26.13992 1370 ft 214 kts 81°
2026-04-24 19:25 44.58242 26.16098 2080 ft 220 kts 81°
2026-04-24 19:25 44.58406 26.18256 2866 ft 225 kts 82°
2026-04-24 19:25 44.58727 26.20416 3499 ft 235 kts 61°
2026-04-24 19:25 44.59916 26.22081 3921 ft 254 kts 23°
2026-04-24 19:26 44.61673 26.22425 4631 ft 262 kts 354°
2026-04-24 19:26 44.63444 26.21769 5440 ft 266 kts 329°
2026-04-24 19:26 44.64813 26.20033 6317 ft 268 kts 304°
2026-04-24 19:26 44.65817 26.17830 7194 ft 268 kts 300°
2026-04-24 19:27 44.66772 26.15572 8083 ft 269 kts 301°
2026-04-24 19:27 44.67757 26.13329 8962 ft 271 kts 302°
2026-04-24 19:27 44.68751 26.11066 9830 ft 273 kts 302°
2026-04-24 19:27 44.69760 26.08743 10297 ft 288 kts 302°
2026-04-24 19:28 44.70838 26.06240 10553 ft 308 kts 302°
2026-04-24 19:28 44.71958 26.03623 11118 ft 316 kts 302°
2026-04-24 19:28 44.73093 26.00948 11787 ft 320 kts 302°
2026-04-24 19:28 44.74230 25.98232 12476 ft 324 kts 302°
2026-04-24 19:29 44.76466 25.92647 13838 ft 332 kts 301°
2026-04-24 19:29 44.77576 25.89784 14455 ft 335 kts 301°
2026-04-24 19:29 44.78681 25.86882 15074 ft 338 kts 301°
2026-04-24 19:30 44.79782 25.83940 15675 ft 341 kts 301°
2026-04-24 19:30 44.80880 25.80971 16271 ft 344 kts 301°
2026-04-24 19:30 44.81980 25.77960 16869 ft 347 kts 301°
2026-04-24 19:30 44.83081 25.74918 17473 ft 350 kts 301°
2026-04-24 19:31 44.84181 25.71843 18078 ft 353 kts 301°
2026-04-24 19:31 44.85284 25.68730 18625 ft 356 kts 301°
2026-04-24 19:31 44.86394 25.65589 19160 ft 359 kts 301°
2026-04-24 19:31 44.87511 25.62425 19722 ft 362 kts 301°
2026-04-24 19:32 44.88639 25.59231 20283 ft 365 kts 301°
2026-04-24 19:32 44.89775 25.56012 20803 ft 368 kts 301°
2026-04-24 19:32 44.90920 25.52769 21317 ft 371 kts 301°
2026-04-24 19:32 44.92075 25.49494 21843 ft 374 kts 301°
2026-04-24 19:33 44.93239 25.46190 22366 ft 377 kts 301°
2026-04-24 19:33 44.94409 25.42864 22892 ft 380 kts 301°
2026-04-24 19:33 44.95589 25.39507 23418 ft 383 kts 301°
2026-04-24 19:33 44.96775 25.36129 23887 ft 386 kts 301°
2026-04-24 19:34 44.97964 25.32741 24301 ft 388 kts 301°
2026-04-24 19:34 44.99165 25.29313 24725 ft 390 kts 301°
2026-04-24 19:34 45.00370 25.25869 25132 ft 393 kts 301°
2026-04-24 19:34 45.01582 25.22396 25525 ft 395 kts 300°
2026-04-24 19:35 45.02801 25.18897 25925 ft 398 kts 301°
2026-04-24 19:35 45.04026 25.15378 26328 ft 400 kts 301°
2026-04-24 19:35 45.05244 25.11877 26714 ft 402 kts 300°
2026-04-24 19:35 45.06485 25.08312 27100 ft 405 kts 300°
2026-04-24 19:36 45.07734 25.04721 27477 ft 407 kts 300°
2026-04-24 19:36 45.08987 25.01119 27851 ft 409 kts 300°
2026-04-24 19:36 45.10247 24.97496 28228 ft 411 kts 300°
2026-04-24 19:36 45.11518 24.93840 28570 ft 414 kts 300°
2026-04-24 19:37 45.12797 24.90173 28920 ft 416 kts 300°
2026-04-24 19:37 45.14067 24.86539 29266 ft 419 kts 300°
2026-04-24 19:37 45.15379 24.82785 29629 ft 421 kts 300°
2026-04-24 19:37 45.16683 24.79057 29981 ft 423 kts 300°
2026-04-24 19:38 45.17979 24.75351 30286 ft 425 kts 300°
2026-04-24 19:38 45.19301 24.71571 30595 ft 427 kts 300°
2026-04-24 19:38 45.20625 24.67782 30896 ft 429 kts 300°
2026-04-24 19:38 45.21947 24.63988 31283 ft 428 kts 300°
2026-04-24 19:39 45.23261 24.60205 31734 ft 427 kts 300°
2026-04-24 19:39 45.24563 24.56434 32186 ft 425 kts 300°
2026-04-24 19:39 45.25860 24.52664 32615 ft 424 kts 300°
2026-04-24 19:39 45.27147 24.48905 33052 ft 423 kts 300°
2026-04-24 19:40 45.28425 24.45158 33488 ft 421 kts 301°
2026-04-24 19:40 45.29732 24.41441 33918 ft 420 kts 301°
2026-04-24 19:40 45.31042 24.37740 34284 ft 419 kts 301°
2026-04-24 19:40 45.32358 24.34043 34622 ft 418 kts 301°
2026-04-24 19:41 45.33677 24.30358 34960 ft 418 kts 301°
2026-04-24 19:41 45.34979 24.26729 35266 ft 417 kts 301°
2026-04-24 19:41 45.36303 24.23058 35570 ft 417 kts 301°
2026-04-24 19:41 45.37630 24.19392 35868 ft 417 kts 301°
2026-04-24 19:42 45.38960 24.15729 36165 ft 417 kts 301°
2026-04-24 19:42 45.40294 24.12072 36473 ft 416 kts 301°
2026-04-24 19:42 45.41624 24.08419 36819 ft 415 kts 301°
2026-04-24 19:42 45.42949 24.04782 37103 ft 414 kts 301°
2026-04-24 19:43 45.44279 24.01146 37372 ft 414 kts 301°
2026-04-24 19:43 45.45611 23.97513 37631 ft 414 kts 301°
2026-04-24 19:43 45.46938 23.93883 37851 ft 413 kts 301°
2026-04-24 19:43 45.48262 23.90245 38023 ft 414 kts 301°
2026-04-24 19:44 45.49590 23.86596 38064 ft 414 kts 301°
2026-04-24 19:44 45.52239 23.79322 38050 ft 413 kts 301°
2026-04-24 19:45 45.54886 23.72041 38071 ft 413 kts 301°
2026-04-24 19:45 45.57530 23.64751 38070 ft 413 kts 301°
2026-04-24 19:46 45.60171 23.57461 38073 ft 414 kts 301°
2026-04-24 19:46 45.62812 23.50165 38075 ft 414 kts 301°
2026-04-24 19:47 45.65453 23.42865 38074 ft 413 kts 301°
2026-04-24 19:47 45.68095 23.35561 38070 ft 414 kts 301°
2026-04-24 19:48 45.70728 23.28239 38054 ft 414 kts 301°
2026-04-24 19:48 45.74656 23.17226 38065 ft 414 kts 301°
2026-04-24 19:49 45.79884 23.02548 38069 ft 414 kts 301°
2026-04-24 19:50 45.85085 22.87847 38057 ft 414 kts 301°
2026-04-24 19:51 45.88990 22.76784 38063 ft 414 kts 301°
2026-04-24 19:52 45.92890 22.65718 38039 ft 414 kts 301°
2026-04-24 19:52 45.95465 22.58364 38060 ft 414 kts 301°
2026-04-24 19:53 45.98051 22.50967 38064 ft 414 kts 301°
2026-04-24 19:54 46.01927 22.39864 38059 ft 414 kts 301°
2026-04-24 19:54 46.04505 22.32461 38047 ft 414 kts 301°
2026-04-24 19:55 46.06215 22.27497 38049 ft 413 kts 301°
2026-04-24 19:55 46.09646 22.17646 38048 ft 414 kts 302°
2026-04-24 19:56 46.11873 22.11464 38039 ft 422 kts 302°
2026-04-24 19:56 46.14621 22.03870 38038 ft 430 kts 302°
2026-04-24 19:57 46.17394 21.96200 38032 ft 432 kts 302°
2026-04-24 19:57 46.20166 21.88505 38029 ft 432 kts 302°
2026-04-24 19:58 46.22939 21.80803 38024 ft 432 kts 302°
2026-04-24 19:58 46.25711 21.73094 38020 ft 432 kts 302°
2026-04-24 19:59 46.28483 21.65370 38009 ft 432 kts 302°
2026-04-24 19:59 46.31239 21.57649 38021 ft 432 kts 302°
2026-04-24 20:00 46.33972 21.49984 38028 ft 432 kts 302°
2026-04-24 20:00 46.36708 21.42294 38030 ft 432 kts 302°
2026-04-24 20:01 46.39459 21.34553 38038 ft 432 kts 302°
2026-04-24 20:01 46.42205 21.26813 38018 ft 432 kts 302°
2026-04-24 20:02 46.44949 21.19066 38034 ft 431 kts 302°
2026-04-24 20:02 46.47691 21.11309 38031 ft 431 kts 302°
2026-04-24 20:03 46.50423 21.03577 38029 ft 430 kts 302°
2026-04-24 20:03 46.53134 20.95901 38009 ft 430 kts 302°
2026-04-24 20:04 46.55901 20.88203 38015 ft 429 kts 304°
2026-04-24 20:04 46.58806 20.80647 38020 ft 428 kts 304°
2026-04-24 20:05 46.61718 20.73088 38012 ft 428 kts 304°
2026-04-24 20:05 46.64625 20.65533 38000 ft 428 kts 304°
2026-04-24 20:06 46.67546 20.57980 38006 ft 428 kts 304°
2026-04-24 20:06 46.70466 20.50430 38015 ft 428 kts 304°
2026-04-24 20:07 46.72890 20.44156 38024 ft 428 kts 304°
2026-04-24 20:07 46.76301 20.35325 38025 ft 428 kts 304°
2026-04-24 20:08 46.79222 20.27754 38014 ft 427 kts 304°
2026-04-24 20:08 46.82138 20.20188 38024 ft 427 kts 304°
2026-04-24 20:09 46.85124 20.12684 38038 ft 426 kts 306°
2026-04-24 20:09 46.88217 20.05306 38047 ft 425 kts 306°
2026-04-24 20:10 46.91297 19.97982 38031 ft 425 kts 306°
2026-04-24 20:10 46.94406 19.90649 38042 ft 424 kts 307°
2026-04-24 20:11 46.97591 19.83382 38047 ft 424 kts 307°
2026-04-24 20:11 47.00782 19.76111 38045 ft 424 kts 307°
2026-04-24 20:12 47.04033 19.68910 38041 ft 423 kts 308°
2026-04-24 20:12 47.07327 19.61739 38003 ft 423 kts 309°
2026-04-24 20:13 47.10698 19.54666 38009 ft 423 kts 309°
2026-04-24 20:13 47.14100 19.47613 38016 ft 422 kts 310°
2026-04-24 20:14 47.17559 19.40636 38026 ft 422 kts 310°
2026-04-24 20:14 47.21095 19.33756 38017 ft 421 kts 312°
2026-04-24 20:15 47.24752 19.27028 38032 ft 420 kts 313°
2026-04-24 20:15 47.28585 19.20551 38040 ft 419 kts 316°
2026-04-24 20:16 47.32509 19.14286 38043 ft 418 kts 316°
2026-04-24 20:16 47.36198 19.07633 38042 ft 423 kts 305°
2026-04-24 20:17 47.38754 18.99761 38024 ft 428 kts 296°
2026-04-24 20:17 47.42039 18.87483 38025 ft 428 kts 297°
2026-04-24 20:18 47.44425 18.79595 37274 ft 411 kts 299°
2026-04-24 20:18 47.45635 18.75777 36309 ft 410 kts 300°
2026-04-24 20:18 47.46846 18.71987 35476 ft 405 kts 299°
2026-04-24 20:19 47.48037 18.68234 34711 ft 401 kts 299°
2026-04-24 20:19 47.49201 18.64512 33933 ft 396 kts 298°
2026-04-24 20:19 47.50354 18.60781 33071 ft 392 kts 298°
2026-04-24 20:19 47.51475 18.57130 32262 ft 387 kts 298°
2026-04-24 20:20 47.52580 18.53522 31492 ft 383 kts 297°
2026-04-24 20:20 47.53659 18.50003 30766 ft 379 kts 296°
2026-04-24 20:20 47.54544 18.46340 30039 ft 377 kts 290°
2026-04-24 20:20 47.55333 18.42653 29242 ft 373 kts 290°
2026-04-24 20:21 47.56108 18.39018 28496 ft 368 kts 290°
2026-04-24 20:21 47.56871 18.35422 27805 ft 364 kts 290°
2026-04-24 20:21 47.57626 18.31872 27111 ft 359 kts 290°
2026-04-24 20:21 47.58375 18.28358 26401 ft 355 kts 290°
2026-04-24 20:22 47.59113 18.24886 25698 ft 352 kts 290°
2026-04-24 20:22 47.59843 18.21446 25013 ft 348 kts 289°
2026-04-24 20:22 47.60563 18.18046 24337 ft 344 kts 289°
2026-04-24 20:22 47.61274 18.14684 23682 ft 340 kts 289°
2026-04-24 20:23 47.61977 18.11353 22920 ft 337 kts 289°
2026-04-24 20:23 47.62671 18.08054 22165 ft 333 kts 289°
2026-04-24 20:23 47.63358 18.04790 21448 ft 329 kts 290°
2026-04-24 20:23 47.64025 18.01608 20752 ft 326 kts 290°
2026-04-24 20:24 47.64466 17.99500 20333 ft 326 kts 290°
2026-04-24 20:24 47.65366 17.95209 19842 ft 323 kts 290°
2026-04-24 20:24 47.66029 17.92035 19474 ft 321 kts 290°
2026-04-24 20:24 47.66689 17.88869 19096 ft 320 kts 290°
2026-04-24 20:25 47.67344 17.85730 18738 ft 318 kts 290°
2026-04-24 20:25 47.67995 17.82599 18370 ft 317 kts 290°
2026-04-24 20:25 47.68642 17.79482 17984 ft 315 kts 290°
2026-04-24 20:25 47.69284 17.76384 17600 ft 313 kts 290°
2026-04-24 20:26 47.69918 17.73306 17222 ft 311 kts 290°
2026-04-24 20:26 47.70548 17.70240 16845 ft 309 kts 290°
2026-04-24 20:26 47.71172 17.67195 16480 ft 307 kts 290°
2026-04-24 20:26 47.71790 17.64175 16121 ft 305 kts 290°
2026-04-24 20:27 47.72403 17.61173 15765 ft 303 kts 290°
2026-04-24 20:27 47.73014 17.58187 15414 ft 301 kts 291°
2026-04-24 20:27 47.73860 17.55378 15071 ft 297 kts 300°
2026-04-24 20:27 47.74833 17.52684 14723 ft 295 kts 301°
2026-04-24 20:28 47.75815 17.50016 14372 ft 293 kts 301°
2026-04-24 20:28 47.76786 17.47374 13936 ft 290 kts 301°
2026-04-24 20:28 47.77753 17.44751 13391 ft 288 kts 301°
2026-04-24 20:28 47.78697 17.42186 12867 ft 285 kts 301°
2026-04-24 20:29 47.79338 17.40441 12512 ft 284 kts 301°
2026-04-24 20:29 47.80574 17.37068 11834 ft 280 kts 301°
2026-04-24 20:29 47.81512 17.34499 11326 ft 278 kts 301°
2026-04-24 20:29 47.82445 17.31994 10834 ft 275 kts 301°
2026-04-24 20:30 47.83383 17.29519 10412 ft 274 kts 302°
2026-04-24 20:30 47.84314 17.27059 10143 ft 271 kts 302°
2026-04-24 20:30 47.85234 17.24617 9823 ft 269 kts 302°
2026-04-24 20:30 47.86138 17.22223 9481 ft 268 kts 301°
2026-04-24 20:31 47.87050 17.19819 9141 ft 265 kts 301°
2026-04-24 20:31 47.87959 17.17435 8813 ft 263 kts 301°
2026-04-24 20:31 47.88865 17.15077 8446 ft 261 kts 301°
2026-04-24 20:31 47.89766 17.12748 8019 ft 258 kts 301°
2026-04-24 20:32 47.90663 17.10442 7598 ft 256 kts 302°
2026-04-24 20:32 47.91576 17.08173 7173 ft 254 kts 302°
2026-04-24 20:32 47.92495 17.05930 6759 ft 252 kts 302°
2026-04-24 20:32 47.93405 17.03723 6247 ft 248 kts 302°
2026-04-24 20:33 47.94308 17.01530 5641 ft 247 kts 303°
2026-04-24 20:33 47.95197 16.99342 5039 ft 246 kts 303°
2026-04-24 20:33 47.96072 16.97150 4434 ft 246 kts 302°
2026-04-24 20:33 47.96945 16.94957 3814 ft 245 kts 302°
2026-04-24 20:34 47.97815 16.92797 3224 ft 248 kts 303°
2026-04-24 20:34 47.98722 16.90610 3011 ft 247 kts 303°
2026-04-24 20:34 47.99619 16.88457 2983 ft 238 kts 303°
2026-04-24 20:34 48.00462 16.86415 2998 ft 223 kts 303°
2026-04-24 20:35 48.01254 16.84483 2998 ft 208 kts 303°
2026-04-24 20:35 48.01992 16.82701 3002 ft 203 kts 304°
2026-04-24 20:35 48.02749 16.80930 3004 ft 202 kts 306°
2026-04-24 20:35 48.03547 16.79210 3005 ft 202 kts 307°
2026-04-24 20:36 48.04314 16.77454 3005 ft 202 kts 302°
2026-04-24 20:36 48.04959 16.75665 3005 ft 191 kts 299°
2026-04-24 20:36 48.05543 16.73923 2955 ft 181 kts 299°
2026-04-24 20:36 48.06078 16.72298 2753 ft 168 kts 299°
2026-04-24 20:37 48.06578 16.70778 2551 ft 158 kts 299°
2026-04-24 20:37 48.07062 16.69305 2346 ft 157 kts 299°
2026-04-24 20:37 48.07540 16.67849 2141 ft 156 kts 298°
2026-04-24 20:37 48.07995 16.66460 1935 ft 142 kts 298°
2026-04-24 20:38 48.08418 16.65168 1750 ft 136 kts 298°
2026-04-24 20:38 48.08831 16.63907 1569 ft 134 kts 298°
2026-04-24 20:38 48.09240 16.62657 1388 ft 136 kts 298°
2026-04-24 20:38 48.09524 16.61789 1270 ft 137 kts 297°
2026-04-24 20:39 48.09937 16.60532 1080 ft 136 kts 296°
2026-04-24 20:39 48.10354 16.59254 872 ft 137 kts 294°
2026-04-24 20:39 48.10761 16.58008 712 ft 137 kts 295°
2026-04-24 20:39 48.11154 16.56778 632 ft 114 kts 296°
2026-04-24 20:40 48.11431 16.55949 625 ft 64 kts 296°
2026-04-24 20:40 48.11549 16.55580 624 ft 15 kts 295°
2026-04-24 20:40 48.11562 16.55540 620 ft 5 kts 295°
2026-04-24 20:40 48.11586 16.55486 623 ft 8 kts 309°
2026-04-24 20:41 48.11632 16.55406 620 ft 13 kts 310°
2026-04-24 20:41 48.11709 16.55276 608 ft 20 kts 316°
2026-04-24 20:41 48.11811 16.55152 611 ft 3 kts 338°
2026-04-24 20:42 48.11821 16.55145 622 ft 4 kts 339°
2026-04-24 20:42 48.11856 16.55139 611 ft 0 kts 11°
2026-04-24 20:43 48.11862 16.55141 608 ft 3 kts 11°
2026-04-24 20:43 48.11883 16.55178 616 ft 7 kts 65°
2026-04-24 20:43 48.11866 16.55262 615 ft 10 kts 121°
2026-04-24 20:43 48.11831 16.55367 619 ft 13 kts 115°
2026-04-24 20:44 48.11790 16.55492 611 ft 14 kts 116°
2026-04-24 20:44 48.11749 16.55617 620 ft 13 kts 116°
2026-04-24 20:44 48.11721 16.55750 613 ft 14 kts 73°
2026-04-24 20:44 48.11811 16.55840 609 ft 19 kts 26°
2026-04-24 20:45 48.11901 16.55896 602 ft 10 kts 354°
2026-04-24 20:45 48.11930 16.55826 601 ft 10 kts 297°
2026-04-24 20:45 48.11938 16.55801 601 ft 0 kts 296°